Regional Weather Roundup
Issued by NWS

Home | Current Version | Previous Version | Text Only | Print | Product List | Glossary Off
Versions: 1 2 3 4 5 6 7 8 9 10 11 12 13 14 15 16 17 18 19 20 21 22 23 24 25 26 27 28 29 30 31 32 33 34 35 36 37 38 39 40 41 42 43 44 45 46 47 48 49 50

000
ASUS45 KBOI 171710
RWRID

IDAHO REGIONAL WEATHER ROUNDUP
NATIONAL WEATHER SERVICE BOISE ID
1000 AM MST WED JAN 17 2018

NOTE: "FAIR" INDICATES FEW OR NO CLOUDS BELOW 12000 FEET
WITH NO SIGNIFICANT WEATHER AND/OR OBSTRUCTIONS TO VISIBILITY

IDZ012-014-171800-
SOUTHWEST IDAHO


CITY           SKY/WX    TMP DP  RH WIND       PRES   REMARKS
BOISE          PTSUNNY   35  31  85 S14       30.33S WCI  26
CALDWELL       PTSUNNY   35  34  96 E16       30.34F WCI  25
MOUNTAIN HOME  PTSUNNY   34  32  93 SE16      30.36F WCI  23
$$

IDZ016-017-171800-
SOUTHCENTRAL IDAHO


CITY           SKY/WX    TMP DP  RH WIND       PRES   REMARKS
BURLEY         SUNNY     34  29  82 N8        30.40S WCI  27
JEROME         PTSUNNY   34  26  72 NE16      30.39F WCI  24
TWIN FALLS     PTSUNNY   32  32 100 E9        30.39S FOG     WCI  24
$$

IDZ019>023-171800-
SOUTHEAST IDAHO


CITY           SKY/WX    TMP DP  RH WIND       PRES   REMARKS
IDAHO FALLS    MOSUNNY   27  24  89 N3        30.43R
POCATELLO      PTSUNNY   30  27  88 NW3       30.44R
REXBURG        MOSUNNY   25  20  81 NE5       30.43R WCI  19
$$

IDZ006-010-011-018-031-032-171800-
CENTRAL IDAHO MOUNTAINS


CITY           SKY/WX    TMP DP  RH WIND       PRES   REMARKS
MCCALL         CLOUDY    26  23  88 NE5       30.29F WCI  20
HAILEY         CLOUDY    25  16  68 NW9       30.43S WCI  15
STANLEY          N/A     22  18  85 CALM      30.38S
SALMON         CLOUDY    22  20  92 N3        30.46R
CHALLIS        FOG       21  18  88 CALM      30.42F VSB 1
$$

IDZ002-004-006-007-026-171800-
NORTHERN IDAHO


CITY           SKY/WX    TMP DP  RH WIND       PRES   REMARKS
LEWISTON       PTSUNNY   40  34  79 E12       30.19F WCI  33
LOWELL           N/A     35  33  92 VRB5      30.30F WCI  31
COEUR D`ALENE  CLOUDY    34  33  96 NE10      30.18R WCI  26
MULLAN PASS    CLOUDY    25  25 100 S10       30.12F WCI  15
$$



USA.gov is the U.S. government's official web portal to all federal, state and local government web resources and services.